Monroe, LA

1:20 AM CDT on September 01, 2016 (GMT -0500)
Monroe Regional

Weather History for KMLU - May, 2014

Change the Weather History Date:

Monday, May 5, 2014

  Actual Average Record
Temperature  
Mean Temperature 71 °F 71 °F  
Max Temperature 86 °F 83 °F 93 °F (1952)
Min Temperature 56 °F 60 °F 42 °F (2013)
Degree Days  
Heating Degree Days 0 0  
Month to date heating degree days 9 3  
Since 1 July heating degree days 2825 2227  
Cooling Degree Days 6 7  
Month to date cooling degree days 14 31  
Year to date cooling degree days 102 178  
Growing Degree Days 20 (Base 50)    
Moisture  
Dew Point 55 °F    
Average Humidity 59    
Maximum Humidity 77    
Minimum Humidity 40    
Precipitation  
Precipitation 0.00 in 0.17 in 3.93 in (1989)
Month to date precipitation 0.00 0.85  
Year to date precipitation 17.15 19.71  
Snow  
Snow 0.00 in - - ()
Month to date snowfall 0.0  
Since 1 July snowfall 0.5  
Snow Depth 0.00 in    
Sea Level Pressure  
Sea Level Pressure 29.98 in    
Wind  
Wind Speed 9 mph (SSW)    
Max Wind Speed 18 mph    
Max Gust Speed 23 mph    
Visibility 10 miles    
Events      
T = Trace of Precipitation, MM = Missing Value Source: NWS Daily Summary

Daily Weather History Graph

Daily Weather History Graph

Search for Another Location

Airport or City:

Trip Planner

Search our weather history database for the weather conditions in past years. The results will help you decide how hot, cold, wet, or windy it might be!

Date:

Astronomy

May. 05, 2014 Rise Set
Actual Time 6:17 AM CDT 7:52 PM CDT
Civil Twilight 5:51 AM CDT 8:18 PM CDT
Nautical Twilight 5:19 AM CDT 8:50 PM CDT
Astronomical Twilight 4:46 AM CDT 9:24 PM CDT
Moon 11:36 AM CDT (5/5) 12:37 AM CDT (5/5)
Length of Visible Light 14h 27m
Length of Day
13h 34m
Waxing Crescent, 37% of the Moon is Illuminated
May 5
Waxing Crescent
May 6
First Quarter
May 14
Full
May 21
Last Quarter
May 28
New

Hourly Weather History & Observations

Time (CDT) Temp. Heat Index Dew Point Humidity Pressure Visibility Wind Dir Wind Speed Gust Speed Precip Events Conditions
12:53 AM 66.2 °F - 51.8 °F 60% 30.04 in 10.0 mi SSW 6.9 mph - N/A   Clear
1:53 AM 63.0 °F - 52.0 °F 67% 30.03 in 10.0 mi SW 8.1 mph - N/A   Clear
2:53 AM 62.1 °F - 51.1 °F 67% 30.02 in 10.0 mi SSW 6.9 mph - N/A   Clear
3:53 AM 60.1 °F - 50.0 °F 69% 30.01 in 10.0 mi SSW 4.6 mph - N/A   Clear
4:53 AM 57.9 °F - 50.0 °F 75% 30.01 in 10.0 mi SSW 4.6 mph - N/A   Clear
5:53 AM 57.0 °F - 48.9 °F 74% 30.02 in 10.0 mi SSW 4.6 mph - N/A   Clear
6:53 AM 55.9 °F - 48.9 °F 77% 30.03 in 10.0 mi South 4.6 mph - N/A   Clear
7:53 AM 61.0 °F - 51.1 °F 70% 30.04 in 10.0 mi SSW 3.5 mph - N/A   Clear
8:53 AM 66.9 °F - 51.1 °F 57% 30.05 in 10.0 mi SSW 5.8 mph - N/A   Clear
9:53 AM 73.0 °F - 52.0 °F 48% 30.04 in 10.0 mi WSW 16.1 mph - N/A   Clear
10:53 AM 75.9 °F - 53.1 °F 45% 30.04 in 10.0 mi SW 12.7 mph 23.0 mph N/A   Clear
11:53 AM 79.0 °F - 55.9 °F 45% 30.03 in 10.0 mi SW 11.5 mph 19.6 mph N/A   Clear
12:53 PM 82.4 °F 82.0 °F 57.2 °F 42% 30.01 in 10.0 mi WSW 11.5 mph 16.1 mph N/A   Clear
1:53 PM 82.9 °F 82.1 °F 55.9 °F 39% 29.98 in 10.0 mi SW 10.4 mph - N/A   Clear
2:53 PM 84.9 °F 84.2 °F 57.9 °F 40% 29.95 in 10.0 mi South 9.2 mph - N/A   Clear
3:53 PM 84.9 °F 83.9 °F 57.0 °F 38% 29.92 in 10.0 mi SSW 11.5 mph - N/A   Clear
4:53 PM 84.9 °F 83.9 °F 57.0 °F 38% 29.90 in 10.0 mi South 10.4 mph - N/A   Clear
5:53 PM 84.0 °F 83.8 °F 59.0 °F 43% 29.90 in 10.0 mi South 12.7 mph - N/A   Clear
6:53 PM 81.0 °F 81.6 °F 60.1 °F 49% 29.89 in 6.0 mi South 8.1 mph - N/A   Haze
7:53 PM 75.9 °F - 60.1 °F 58% 29.89 in 6.0 mi South 6.9 mph - N/A   Haze
8:53 PM 73.0 °F - 59.0 °F 61% 29.91 in 10.0 mi South 6.9 mph - N/A   Smoke
9:53 PM 72.0 °F - 57.9 °F 61% 29.92 in 10.0 mi South 8.1 mph - N/A   Smoke
10:53 PM 71.6 °F - 57.2 °F 60% 29.93 in 10.0 mi South 10.4 mph 17.3 mph N/A   Smoke
11:53 PM 69.1 °F - 57.0 °F 65% 29.93 in 10.0 mi South 10.4 mph - N/A   Smoke